YWGT

Details ICAO YWGT
Name Wangaratta
Region Australia
Timezone Australia/Melbourne (UTC+10.0)
Plans Departing 0
Arriving 11
Stats Elevation 504 ft / 154 m (AMSL)
Location -36.417393° 146.305505°
Runways 2
Magnetic Variation 11.683° E
Sunrise 2018-05-23 21:13:05 UTC / 2018-05-24 07:13:05 Local
Sunset 2018-05-24 07:12:56 UTC / 2018-05-24 17:12:56 Local
Advertisement - Login to hide

Runways

ID Width Length Bearing (true) Bearing (mag) Surface Threshold Offset Overrun Length
18 98 ft / 30 m 5,387 ft / 1,642 m 188.10° 176.42° Asphalt 0 ft / 0 m 0 ft / 0 m
27 164 ft / 50 m 2,008 ft / 612 m 277.80° 266.12° Grass 0 ft / 0 m 0 ft / 0 m
36 98 ft / 30 m 5,387 ft / 1,642 m 8.11° 356.43° Asphalt 0 ft / 0 m 0 ft / 0 m
9 164 ft / 50 m 2,008 ft / 612 m 97.80° 86.12° Grass 0 ft / 0 m 0 ft / 0 m

Map

Weather


0- 5 10 15 20 25 30 35+ Temperature / ° C

Clouds and Precipitation
Forecast for 2018-05-23 18:00 UTC. Updated 6 hours ago

Ground ~20,000 ft ~40,000 ft Winds

METAR

YWGT 232300Z AUTO 00000KT 9999 // NCD 06/06 Q1026

TAF

TAF YWGT 231756Z 2320/2408 VRB05KT 9999 SCT025 FM240200 VRB05KT 9999 FEW030 PROB30 2320/2324 0500 FG BKN005

Frequencies

Unicom 119.10 MHz CTAF
Warning: Do not use this data for real-world aviation or navigation. No guarantee of current accuracy is given.